Weather History for Valparaiso, IN

Change the Weather History Date:

Monday, October 3, 2011

  Actual Average Record
Temperature  
Mean Temperature 52 °F 57 °F  
Max Temperature 68 °F 68 °F 85 °F (2005)
Min Temperature 39 °F 46 °F 32 °F (2003)
Degree Days  
Heating Degree Days 12 9  
Month to date heating degree days 27  
Since 1 July heating degree days 157  
Cooling Degree Days 0 1  
Month to date cooling degree days 3  
Year to date cooling degree days 705  
Growing Degree Days 2 (Base 50)    
Moisture  
Dew Point 43 °F    
Average Humidity 82    
Maximum Humidity 100    
Minimum Humidity 40    
Precipitation  
Precipitation 0.00 in 0.10 in 1.02 in (1999)
Month to date precipitation 0.29  
Year to date precipitation 29.04  
Sea Level Pressure  
Sea Level Pressure 30.21 in    
Wind  
Wind Speed 1 mph (NNW)    
Max Wind Speed 10 mph    
Max Gust Speed 20 mph    
Visibility 7 miles    
Events Fog    
T = Trace of Precipitation, MM = Missing Value Source: NWS Daily Summary

Daily Weather History Graph

Daily Weather History Graph

Search for Another Location

Airport:

Trip Planner

Search our weather history database for the weather conditions in past years. The results will help you decide how hot, cold, wet, or windy it might be!

Date:

Astronomy

Oct. 03, 2011 Rise Set
Actual Time 6:46 AM CDT 6:26 PM CDT
Civil Twilight 6:19 AM CDT 6:54 PM CDT
Nautical Twilight 5:46 AM CDT 7:26 PM CDT
Astronomical Twilight 5:14 AM CDT 7:58 PM CDT
Moon 1:47 PM CDT (10/3) 11:25 PM CDT (10/3)
Length of Visible Light 12h 35m
Length of Day
11h 40m
Waxing Crescent, 45% of the Moon is Illuminated
Oct 3
Waxing Crescent
Oct 3
First Quarter
Oct 11
Full
Oct 19
Last Quarter
Oct 26
New

Hourly Weather History & Observations

Time (CDT) Temp. Dew Point Humidity Pressure Visibility Wind Dir Wind Speed Gust Speed Precip Events Conditions
12:53 AM 39.0 °F 37.9 °F 96% 30.16 in 10.0 mi Calm Calm - N/A   Clear
1:53 AM 39.9 °F 37.0 °F 89% 30.17 in 10.0 mi Calm Calm - N/A   Clear
2:53 AM 39.0 °F 37.9 °F 96% 30.16 in 10.0 mi Calm Calm - N/A   Clear
3:53 AM 39.9 °F 37.9 °F 93% 30.16 in 10.0 mi Calm Calm - N/A   Clear
4:53 AM 39.0 °F 37.9 °F 96% 30.18 in 10.0 mi Calm Calm - N/A   Clear
5:53 AM 39.9 °F 37.9 °F 93% 30.19 in 9.0 mi Calm Calm - N/A   Clear
6:53 AM 39.0 °F 37.0 °F 93% 30.21 in 7.0 mi Calm Calm - N/A   Clear
7:53 AM 44.1 °F 43.0 °F 96% 30.21 in 10.0 mi Calm Calm - N/A   Clear
9:53 AM 62.1 °F 48.0 °F 60% 30.23 in 10.0 mi Variable 4.6 mph - N/A   Clear
10:53 AM 66.0 °F 46.0 °F 48% 30.21 in 10.0 mi NW 5.8 mph - N/A   Clear
11:53 AM 66.9 °F 44.1 °F 44% 30.21 in 10.0 mi Variable 4.6 mph - N/A   Clear
1:53 PM 66.9 °F 42.1 °F 40% 30.19 in 10.0 mi North 8.1 mph - N/A   Clear
2:53 PM 66.0 °F 42.1 °F 42% 30.20 in 10.0 mi North 10.4 mph 19.6 mph N/A   Clear
3:53 PM 64.9 °F 43.0 °F 45% 30.20 in 10.0 mi North 6.9 mph - N/A   Clear
5:53 PM 59.0 °F 45.0 °F 60% 30.21 in 10.0 mi NNW 4.6 mph - N/A   Clear
6:53 PM 54.0 °F 48.9 °F 83% 30.22 in 10.0 mi NNW 3.5 mph - N/A   Clear
8:47 PM 48.2 °F 48.2 °F 100% 30.22 in 1.8 mi Calm Calm - N/A   Clear
8:53 PM 48.9 °F 46.9 °F 93% 30.23 in 1.2 mi Calm Calm - N/A   Clear
8:58 PM 48.2 °F 48.2 °F 100% 30.22 in 3.0 mi Calm Calm - N/A   Clear
9:50 PM 46.4 °F 46.4 °F 100% 30.23 in 1.8 mi Calm Calm - N/A   Clear
9:53 PM 46.9 °F 46.0 °F 97% 30.24 in 1.0 mi Calm Calm - N/A   Clear
10:00 PM 48.2 °F 46.4 °F 93% 30.23 in 0.5 mi Calm Calm - N/A Fog Fog
10:10 PM 44.6 °F 44.6 °F 100% 30.24 in 0.2 mi Calm Calm - N/A Fog Fog
10:22 PM 44.6 °F 44.6 °F 100% 30.24 in 0.2 mi Calm Calm - N/A Fog Fog
11:53 PM 43.0 °F 43.0 °F 100% 30.24 in 0.2 mi Calm Calm - N/A Fog Fog